When you browse on this site, cookies collect data to enhance your experience and personalize the content and advertising you see.
Visit our Privacy Policy to learn more. By continuing to use the site, you agree to this use of cookies and data.
  • In Österreich
  • Länderverzeichnis
  • Für 7 Tage
  • Wassertemperatur
  • Wetterkarte
  • News
  • Widgets
  • user-avatar
    Anmelden

    Stündliche Wetter Orlowce

    Heute, 15 September, Sonntag

    Zeit Temperatur Niederschläge Wind Luftdruck Luftfeuchtigkeit
    00:00 +12°C° 0 mm 1 m/S 768 mmHg 64%
    01:00 +12°C° 0 mm 2 m/S 768 mmHg 66%
    02:00 +10°C° 0 mm 2 m/S 767 mmHg 67%
    03:00 +10°C° 0 mm 2 m/S 766 mmHg 68%
    04:00 +10°C° 0 mm 2 m/S 766 mmHg 69%
    05:00 +11°C° 0 mm 3 m/S 765 mmHg 68%
    06:00 +11°C° 0 mm 3 m/S 764 mmHg 68%
    07:00 +12°C° 0 mm 3 m/S 764 mmHg 68%
    08:00 +14°C° 0 mm 4 m/S 763 mmHg 63%
    09:00 +17°C° 0 mm 5 m/S 763 mmHg 58%
    10:00 +20°C° 0 mm 5 m/S 762 mmHg 53%
    11:00 +21°C° 0 mm 6 m/S 762 mmHg 48%
    12:00 +22°C° 0 mm 6 m/S 761 mmHg 44%
    13:00 +23°C° 0 mm 6 m/S 761 mmHg 39%
    14:00 +22°C° 0 mm 6 m/S 760 mmHg 39%
    15:00 +22°C° 0 mm 6 m/S 760 mmHg 39%
    16:00 +22°C° 0 mm 5 m/S 760 mmHg 39%
    17:00 +21°C° 0 mm 5 m/S 760 mmHg 42%
    18:00 +19°C° 0 mm 4 m/S 760 mmHg 46%
    19:00 +18°C° 0 mm 4 m/S 760 mmHg 49%
    20:00 +18°C° 0 mm 4 m/S 760 mmHg 54%
    21:00 +18°C° 0 mm 4 m/S 760 mmHg 59%
    22:00 +18°C° 0 mm 4 m/S 760 mmHg 64%
    23:00 +17°C° 0 mm 4 m/S 760 mmHg 66%

    Morgen, 16 September, Montag

    Zeit Temperatur Niederschläge Wind Luftdruck Luftfeuchtigkeit
    00:00 +15°C° 0 mm 4 m/S 760 mmHg 68%
    01:00 +15°C° 0 mm 4 m/S 760 mmHg 71%
    02:00 +14°C° 0 mm 4 m/S 760 mmHg 70%
    03:00 +13°C° 0 mm 4 m/S 760 mmHg 69%
    04:00 +12°C° 0 mm 4 m/S 760 mmHg 69%
    05:00 +12°C° 0 mm 4 m/S 760 mmHg 68%
    06:00 +12°C° 0 mm 4 m/S 760 mmHg 67%
    07:00 +12°C° 0 mm 4 m/S 760 mmHg 67%
    08:00 +13°C° 0 mm 4 m/S 760 mmHg 63%
    09:00 +14°C° 0 mm 4 m/S 760 mmHg 60%
    10:00 +15°C° 0 mm 5 m/S 760 mmHg 57%
    11:00 +15°C° 0 mm 5 m/S 760 mmHg 56%
    12:00 +16°C° 0 mm 5 m/S 760 mmHg 55%
    13:00 +16°C° 0 mm 5 m/S 759 mmHg 53%
    14:00 +15°C° 0 mm 4 m/S 759 mmHg 61%
    15:00 +14°C° 0 mm 4 m/S 759 mmHg 68%
    16:00 +13°C° 0 mm 4 m/S 759 mmHg 76%
    17:00 +13°C° 0.2 mm 4 m/S 758 mmHg 79%
    18:00 +12°C° 0.2 mm 4 m/S 758 mmHg 83%
    19:00 +12°C° 0.2 mm 3 m/S 758 mmHg 86%
    20:00 +11°C° 0 mm 3 m/S 758 mmHg 86%
    21:00 +11°C° 0 mm 3 m/S 758 mmHg 85%
    22:00 +10°C° 0 mm 2 m/S 758 mmHg 85%
    23:00 +10°C° 0 mm 3 m/S 758 mmHg 85%

    übermorgen, 17 September, Dienstag

    Zeit Temperatur Niederschläge Wind Luftdruck Luftfeuchtigkeit
    00:00 +10°C° 0 mm 3 m/S 758 mmHg 84%
    01:00 +10°C° 0 mm 3 m/S 758 mmHg 84%
    02:00 +8°C° 0 mm 4 m/S 758 mmHg 84%
    03:00 +8°C° 0 mm 4 m/S 758 mmHg 85%
    04:00 +8°C° 0 mm 4 m/S 758 mmHg 85%
    05:00 +8°C° 0 mm 5 m/S 758 mmHg 84%
    06:00 +8°C° 0 mm 5 m/S 758 mmHg 82%
    07:00 +8°C° 0 mm 5 m/S 757 mmHg 81%
    08:00 +10°C° 0 mm 6 m/S 757 mmHg 75%
    09:00 +11°C° 0 mm 7 m/S 757 mmHg 68%
    10:00 +13°C° 0 mm 8 m/S 757 mmHg 62%
    11:00 +13°C° 0.2 mm 8 m/S 757 mmHg 59%
    12:00 +13°C° 0.2 mm 8 m/S 757 mmHg 55%
    13:00 +15°C° 0.2 mm 8 m/S 756 mmHg 52%
    14:00 +13°C° 0.1 mm 8 m/S 756 mmHg 52%
    15:00 +13°C° 0.1 mm 8 m/S 756 mmHg 52%
    16:00 +12°C° 0.1 mm 8 m/S 756 mmHg 53%
    17:00 +11°C° 0.1 mm 8 m/S 756 mmHg 58%
    18:00 +10°C° 0.1 mm 7 m/S 756 mmHg 64%
    19:00 +9°C° 0.1 mm 7 m/S 756 mmHg 69%
    20:00 +9°C° 0 mm 7 m/S 756 mmHg 70%
    21:00 +8°C° 0 mm 7 m/S 756 mmHg 71%
    22:00 +8°C° 0 mm 6 m/S 757 mmHg 71%
    23:00 +8°C° 0 mm 6 m/S 757 mmHg 72%

    18 September, Mittwoch

    Zeit Temperatur Niederschläge Wind Luftdruck Luftfeuchtigkeit
    00:00 +7°C° 0 mm 6 m/S 757 mmHg 73%
    01:00 +7°C° 0 mm 6 m/S 757 mmHg 74%
    02:00 +7°C° 0 mm 6 m/S 758 mmHg 74%
    03:00 +7°C° 0 mm 6 m/S 758 mmHg 73%
    04:00 +7°C° 0 mm 6 m/S 758 mmHg 73%
    05:00 +7°C° 0 mm 6 m/S 759 mmHg 73%
    06:00 +7°C° 0 mm 6 m/S 759 mmHg 74%
    07:00 +8°C° 0 mm 6 m/S 760 mmHg 74%
    08:00 +9°C° 0 mm 6 m/S 760 mmHg 68%
    09:00 +11°C° 0 mm 6 m/S 761 mmHg 62%
    10:00 +13°C° 0 mm 6 m/S 761 mmHg 57%
    11:00 +14°C° 0.1 mm 6 m/S 761 mmHg 54%
    12:00 +14°C° 0.1 mm 6 m/S 761 mmHg 52%
    13:00 +15°C° 0.1 mm 6 m/S 761 mmHg 50%
    14:00 +15°C° 0.3 mm 5 m/S 761 mmHg 52%
    15:00 +14°C° 0.3 mm 5 m/S 761 mmHg 53%
    16:00 +14°C° 0.3 mm 4 m/S 761 mmHg 55%
    17:00 +13°C° 0.1 mm 4 m/S 761 mmHg 62%
    18:00 +11°C° 0.1 mm 3 m/S 762 mmHg 70%
    19:00 +10°C° 0.1 mm 2 m/S 762 mmHg 77%
    20:00 +9°C° 0 mm 2 m/S 762 mmHg 80%
    21:00 +9°C° 0 mm 2 m/S 763 mmHg 83%
    22:00 +8°C° 0 mm 2 m/S 763 mmHg 85%
    23:00 +8°C° 0 mm 2 m/S 763 mmHg 86%

    19 September, Donnerstag

    Zeit Temperatur Niederschläge Wind Luftdruck Luftfeuchtigkeit
    00:00 +7°C° 0 mm 2 m/S 763 mmHg 87%
    01:00 +7°C° 0 mm 2 m/S 764 mmHg 88%
    02:00 +7°C° 0 mm 2 m/S 764 mmHg 90%
    03:00 +6°C° 0 mm 2 m/S 764 mmHg 91%
    04:00 +6°C° 0 mm 2 m/S 764 mmHg 93%
    05:00 +6°C° 0 mm 2 m/S 764 mmHg 92%
    06:00 +7°C° 0 mm 2 m/S 764 mmHg 92%
    07:00 +7°C° 0 mm 3 m/S 764 mmHg 91%
    08:00 +9°C° 0.1 mm 3 m/S 765 mmHg 83%
    09:00 +11°C° 0.1 mm 3 m/S 765 mmHg 75%
    10:00 +13°C° 0.1 mm 3 m/S 765 mmHg 67%
    11:00 +13°C° 0.4 mm 3 m/S 765 mmHg 62%
    12:00 +14°C° 0.4 mm 4 m/S 765 mmHg 57%
    13:00 +15°C° 0.4 mm 4 m/S 765 mmHg 51%
    14:00 +15°C° 0.1 mm 4 m/S 766 mmHg 50%
    15:00 +15°C° 0.1 mm 5 m/S 766 mmHg 50%
    16:00 +15°C° 0.1 mm 5 m/S 766 mmHg 49%
    17:00 +13°C° 0 mm 4 m/S 766 mmHg 56%
    18:00 +11°C° 0 mm 3 m/S 766 mmHg 63%
    19:00 +10°C° 0 mm 2 m/S 767 mmHg 70%
    20:00 +9°C° 0 mm 2 m/S 767 mmHg 72%
    21:00 +9°C° 0 mm 1 m/S 768 mmHg 73%
    22:00 +9°C° 0 mm 1 m/S 768 mmHg 75%
    23:00 +9°C° 0 mm 1 m/S 768 mmHg 75%

    20 September, Freitag

    Zeit Temperatur Niederschläge Wind Luftdruck Luftfeuchtigkeit
    00:00 +8°C° 0 mm 1 m/S 768 mmHg 76%
    01:00 +7°C° 0 mm 2 m/S 768 mmHg 76%
    02:00 +7°C° 0 mm 2 m/S 768 mmHg 79%
    03:00 +7°C° 0 mm 2 m/S 768 mmHg 81%
    04:00 +6°C° 0 mm 2 m/S 768 mmHg 83%
    05:00 +7°C° 0 mm 2 m/S 768 mmHg 81%
    06:00 +7°C° 0 mm 2 m/S 768 mmHg 78%
    07:00 +7°C° 0 mm 2 m/S 768 mmHg 76%
    08:00 +9°C° 0 mm 2 m/S 768 mmHg 67%
    09:00 +13°C° 0 mm 2 m/S 769 mmHg 58%
    10:00 +14°C° 0 mm 3 m/S 769 mmHg 49%
    11:00 +14°C° 0 mm 3 m/S 769 mmHg 47%
    12:00 +16°C° 0 mm 3 m/S 768 mmHg 45%
    13:00 +17°C° 0 mm 3 m/S 768 mmHg 44%
    14:00 +17°C° 0 mm 3 m/S 768 mmHg 45%
    15:00 +16°C° 0 mm 3 m/S 768 mmHg 46%
    16:00 +16°C° 0 mm 3 m/S 767 mmHg 48%
    17:00 +14°C° 0 mm 3 m/S 767 mmHg 53%
    18:00 +13°C° 0 mm 3 m/S 767 mmHg 59%
    19:00 +13°C° 0 mm 2 m/S 767 mmHg 65%
    20:00 +12°C° 0 mm 2 m/S 767 mmHg 72%
    21:00 +10°C° 0 mm 2 m/S 767 mmHg 78%
    22:00 +9°C° 0 mm 2 m/S 767 mmHg 85%
    23:00 +9°C° 0 mm 2 m/S 767 mmHg 87%
    Mehr zeigen